Date String (YYYY-MM-DD hh:mm:ss) UTC,Instrument flags,Ambient pressure (hPa),Sample flow (lpm),Bypass flow (lpm),Sample temperature (°C),Ambient temperature (°C),ASC tube jacket temperature (°C),LED temperature (°C),Box temperature (°C),Sample RH (%),Span deviation,Mass concentration (μg/m³),Mass concentration (μg/m³),Mass concentration (μg/m³)
DateTimeUTC,F1_M11,P_M11,Q1_M11,Q2_M11,T1_M11,T2_M11,T3_M11,T4_M11,T5_M11,U1_M11,ZSPAN_M11,X2_M11,X0_M11,X1_M11
2023-03-01 01:00:00,,0815.0,4.99,0.00,21.9,20.1,00.0,30.7,23.4,09.4,0000.0,0000.53,0001.46,0000.30
2023-03-01 01:01:00,,0814.9,4.98,0.00,21.8,20.0,00.0,30.7,23.4,09.5,0000.0,0000.51,0001.43,0000.30
2023-03-01 01:02:00,,0814.9,4.98,0.00,21.8,19.9,00.0,30.7,23.4,09.3,0000.0,0000.51,0001.44,0000.31
2023-03-01 01:03:00,,0814.9,5.01,0.00,21.8,19.9,00.0,30.7,23.3,09.0,0000.0,0000.52,0001.47,0000.31
2023-03-01 01:04:00,,0815.1,5.01,0.00,21.8,20.1,00.0,30.6,23.3,09.0,0000.0,0000.56,0001.56,0000.31
2023-03-01 01:05:00,,0815.0,4.99,0.00,21.8,21.2,00.0,30.6,23.6,08.9,0000.0,0000.58,0001.64,0000.31
2023-03-01 01:06:00,,0815.0,4.99,0.00,22.0,22.3,00.0,30.6,23.9,08.7,0000.0,0000.61,0001.71,0000.33
2023-03-01 01:07:00,,0815.1,4.95,0.00,22.1,22.9,00.0,30.6,24.1,08.7,0000.0,0000.62,0001.73,0000.33
2023-03-01 01:08:00,,0815.1,5.00,0.00,22.1,22.4,00.0,30.7,24.1,08.5,0000.0,0000.60,0001.79,0000.33
2023-03-01 01:09:00,,0815.2,4.98,0.00,22.1,21.8,00.0,30.7,24.0,08.5,0000.0,0000.63,0001.52,0000.34
2023-03-01 01:10:00,,0815.2,5.00,0.00,22.1,21.3,00.0,30.8,23.8,08.5,0000.0,0000.67,0001.57,0000.34
2023-03-01 01:11:00,,0815.2,5.00,0.00,22.1,21.0,00.0,30.8,23.7,08.7,0000.0,0000.69,0001.61,0000.34
2023-03-01 01:12:00,,0815.3,4.99,0.00,22.0,20.8,00.0,30.8,23.7,09.0,0000.0,0000.69,0001.59,0000.35
2023-03-01 01:13:00,,0815.3,4.99,0.00,22.0,20.5,00.0,30.8,23.6,09.1,0000.0,0000.70,0001.61,0000.35
2023-03-01 01:14:00,,0815.2,5.00,0.00,22.0,20.4,00.0,30.7,23.6,09.4,0000.0,0000.72,0001.64,0000.36
2023-03-01 01:15:00,,0815.3,5.00,0.00,21.9,20.2,00.0,30.7,23.5,09.5,0000.0,0000.72,0001.62,0000.35
2023-03-01 01:16:00,,0815.4,5.00,0.00,21.9,20.1,00.0,30.7,23.5,09.4,0000.0,0000.68,0001.54,0000.34
2023-03-01 01:17:00,,0815.4,5.01,0.00,21.9,20.0,00.0,30.7,23.4,09.4,0000.0,0000.69,0001.53,0000.34
2023-03-01 01:18:00,,0815.4,5.00,0.00,21.8,19.9,00.0,30.7,23.4,09.4,0000.0,0000.67,0001.54,0000.34
2023-03-01 01:19:00,,0815.4,5.00,0.00,21.8,19.9,00.0,30.7,23.3,09.4,0000.0,0000.68,0001.49,0000.33
2023-03-01 01:20:00,,0815.4,4.99,0.00,21.8,19.8,00.0,30.6,23.3,09.4,0000.0,0000.67,0001.47,0000.33
2023-03-01 01:21:00,,0815.4,5.00,0.00,21.7,20.0,00.0,30.6,23.3,09.3,0000.0,0000.61,0001.34,0000.32
2023-03-01 01:22:00,,0815.5,5.00,0.00,21.8,21.2,00.0,30.6,23.6,09.2,0000.0,0000.62,0001.36,0000.32
2023-03-01 01:23:00,,0815.5,5.04,0.00,21.9,22.3,00.0,30.6,23.9,09.3,0000.0,0000.64,0001.38,0000.32
2023-03-01 01:24:00,,0816.0,5.00,0.00,22.1,23.1,00.0,30.6,24.1,09.0,0000.0,0000.65,0001.43,0000.33
2023-03-01 01:25:00,,0816.1,4.98,0.00,22.1,22.7,00.0,30.7,24.1,09.1,0000.0,0000.65,0001.46,0000.33
2023-03-01 01:26:00,,0816.1,4.99,0.00,22.1,22.0,00.0,30.7,24.0,09.2,0000.0,0000.66,0001.50,0000.33
2023-03-01 01:27:00,,0815.8,5.01,0.00,22.1,21.5,00.0,30.7,23.9,09.3,0000.0,0000.65,0001.47,0000.33
2023-03-01 01:28:00,,0815.7,5.01,0.00,22.1,21.1,00.0,30.8,23.7,09.3,0000.0,0000.63,0001.35,0000.33
2023-03-01 01:29:00,,0815.7,5.00,0.00,22.0,20.8,00.0,30.8,23.7,09.3,0000.0,0000.64,0001.24,0000.34
2023-03-01 01:30:00,,0815.7,5.00,0.00,22.0,20.6,00.0,30.8,23.6,09.3,0000.0,0000.65,0001.58,0000.34
2023-03-01 01:31:00,,0815.8,4.99,0.00,22.0,20.4,00.0,30.7,23.6,09.1,0000.0,0000.64,0002.27,0000.34
2023-03-01 01:32:00,,0815.8,5.01,0.00,21.9,20.2,00.0,30.7,23.5,09.1,0000.0,0000.64,0002.27,0000.34
2023-03-01 01:33:00,,0815.9,5.00,0.00,21.9,20.0,00.0,30.7,23.5,09.2,0000.0,0000.62,0002.22,0000.34
2023-03-01 01:34:00,,0816.0,5.00,0.00,21.8,20.0,00.0,30.7,23.4,09.2,0000.0,0000.62,0002.22,0000.33
2023-03-01 01:35:00,,0816.0,5.00,0.00,21.8,19.9,00.0,30.7,23.4,09.2,0000.0,0000.64,0002.25,0000.32
2023-03-01 01:36:00,,0816.0,5.00,0.00,21.8,19.8,00.0,30.7,23.3,09.1,0000.0,0000.63,0002.22,0000.31
2023-03-01 01:37:00,,0816.0,4.99,0.00,21.7,19.8,00.0,30.6,23.3,09.1,0000.0,0000.63,0002.25,0000.31
2023-03-01 01:38:00,,0816.1,5.03,0.00,21.7,20.5,00.0,30.6,23.4,09.1,0000.0,0000.63,0002.24,0000.31
2023-03-01 01:39:00,,0816.1,4.99,0.00,21.9,21.7,00.0,30.6,23.7,09.0,0000.0,0000.63,0002.25,0000.31
2023-03-01 01:40:00,,0816.2,4.96,0.00,22.0,22.8,00.0,30.6,24.1,08.8,0000.0,0000.61,0002.21,0000.30
2023-03-01 01:41:00,,0816.3,5.01,0.00,22.1,23.0,00.0,30.7,24.1,08.7,0000.0,0000.60,0002.16,0000.30
2023-03-01 01:42:00,,0816.3,4.99,0.00,22.1,22.3,00.0,30.7,24.0,08.6,0000.0,0000.60,0001.19,0000.31
2023-03-01 01:43:00,,0816.3,5.02,0.00,22.1,21.8,00.0,30.7,23.9,08.6,0000.0,0000.62,0001.24,0000.32
2023-03-01 01:44:00,,0816.3,5.00,0.00,22.1,21.4,00.0,30.8,23.9,08.4,0000.0,0000.67,0001.43,0000.33
2023-03-01 01:45:00,,0816.4,5.00,0.00,22.1,21.1,00.0,30.8,23.8,08.4,0000.0,0000.68,0001.48,0000.34
2023-03-01 01:46:00,,0816.4,5.01,0.00,22.1,20.9,00.0,30.8,23.7,08.5,0000.0,0000.68,0001.52,0000.35
2023-03-01 01:47:00,,0816.4,4.98,0.00,22.0,20.6,00.0,30.8,23.6,08.6,0000.0,0000.69,0002.44,0000.36
2023-03-01 01:48:00,,0816.4,5.00,0.00,22.0,20.4,00.0,30.8,23.6,08.6,0000.0,0000.69,0003.25,0000.37
2023-03-01 01:49:00,,0816.4,4.96,0.00,22.0,20.3,00.0,30.8,23.6,08.6,0000.0,0000.72,0004.82,0000.39
2023-03-01 01:50:00,,0816.4,5.02,0.00,21.9,20.2,00.0,30.7,23.5,08.6,0000.0,0000.74,0004.85,0000.39
2023-03-01 01:51:00,,0816.4,5.03,0.00,21.9,20.1,00.0,30.7,23.5,08.4,0000.0,0000.77,0004.91,0000.40
2023-03-01 01:52:00,,0816.6,4.96,0.00,21.9,20.0,00.0,30.7,23.4,08.3,0000.0,0000.80,0004.95,0000.40
2023-03-01 01:53:00,,0816.4,5.00,0.00,21.8,19.9,00.0,30.7,23.4,08.4,0000.0,0000.82,0005.02,0000.40
2023-03-01 01:54:00,,0816.5,4.98,0.00,21.8,20.0,00.0,30.7,23.4,08.4,0000.0,0000.83,0005.07,0000.40
2023-03-01 01:55:00,,0816.4,4.99,0.00,21.9,21.1,00.0,30.6,23.7,08.3,0000.0,0000.84,0005.06,0000.41
2023-03-01 01:56:00,,0816.4,5.00,0.00,22.0,22.3,00.0,30.6,23.9,08.2,0000.0,0000.86,0005.08,0000.41
2023-03-01 01:57:00,,0816.4,5.03,0.00,22.1,23.1,00.0,30.7,24.2,08.2,0000.0,0000.85,0005.02,0000.41
2023-03-01 01:58:00,,0816.4,5.01,0.00,22.2,22.8,00.0,30.7,24.1,08.1,0000.0,0000.87,0004.05,0000.43
2023-03-01 01:59:00,,0816.4,4.98,0.00,22.2,22.1,00.0,30.8,24.0,07.9,0000.0,0000.86,0003.16,0000.43
